Regional Weather Roundup
Issued by NWS

Home | Current Version | Previous Version | Graphics & Text | Print | Product List | Glossary On
Versions: 1 2 3 4 5 6 7 8 9 10 11 12 13 14 15 16 17 18 19 20 21 22 23 24 25 26 27 28 29 30 31 32 33 34 35 36 37 38 39 40 41 42 43 44 45 46 47 48 49 50
094
ASUS43 KDMX 202101
RWRIA

WEATHER ROUNDUP FOR IOWA
NATIONAL WEATHER SERVICE DES MOINES IA
400 PM CDT FRI OCT 20 2017

NOTE: "FAIR" INDICATES FEW OR NO CLOUDS BELOW 12,000 FEET WITH NO
SIGNIFICANT WEATHER AND/OR OBSTRUCTIONS TO VISIBILITY.

* - THESE STATIONS ARE NOT NWS STATIONS...THUS NOT UNDER NWS
QUALITY CONTROL.  THEY ALSO DO NOT REPORT WEATHER SUCH
AS PRECIPITATION OR FOG.

IAZ001>003-012>014-020>022-031>034-043>046-202200-
   NORTHWEST IOWA

CITY           SKY/WX    TMP DP  RH WIND       PRES   REMARKS
CHEROKEE *     SUNNY     74  55  50 S22G30    29.72S
DENISON *      PTSUNNY   75  57  53 S22G30    29.76F
LE MARS *      MOSUNNY   75  57  53 S22G37    29.66F
ORANGE CITY *  MOSUNNY   77  57  50 S24G33    29.67F
SHELDON *      SUNNY     75  54  46 S17G29    29.67F
SIOUX CITY     MOSUNNY   77  57  50 S24G35    29.67F
SPENCER        MOSUNNY   77  52  41 S26G37    29.72F
STORM LAKE *   SUNNY     73  54  49 S31G39    29.73F
$$

IAZ055>058-069>071-079>083-090>094-202200-
   SOUTHWEST IOWA

CITY           SKY/WX    TMP DP  RH WIND       PRES   REMARKS
ATLANTIC *     MOSUNNY   75  57  53 S21G31    29.79F
AUDUBON *      MOSUNNY   73  57  56 S21G29    29.80F
CLARINDA *     PTSUNNY   77  57  50 S20G31    29.83F
COUNCIL BLFS * PTSUNNY   73  61  64 S23G35    29.76S
CRESTON *      MOSUNNY   73  54  49 S26G38    29.86F
HARLAN  *      CLOUDY    75  57  53 S24G32    29.80F
LAMONI         LGT RAIN  71  55  56 S13G24    29.90F
RED OAK *      MOSUNNY   75  57  53 S23G30    29.79F
SHENANDOAH *   MOSUNNY   75  59  57 S24G35    29.79F
$$

IAZ047>049-059>061-072>074-084-202200-
   CENTRAL IOWA

CITY           SKY/WX    TMP DP  RH WIND       PRES   REMARKS
AMES           CLOUDY    73  52  47 S20G31    29.85F
ANKENY *       MOSUNNY   73  52  46 S18G32    29.86F
BOONE *        CLOUDY    73  52  46 S21G28    29.83F
CHARITON *     PTSUNNY   72  50  46 S20G28    29.90F
DES MOINES     PTSUNNY   73  51  46 S21G35    29.86F
GRINNELL*      SUNNY     72  49  43 S17G26    29.93F
KNOXVILLE *    MOSUNNY   72  48  43 SE15G25   29.89F
MARSHALLTOWN   SUNNY     73  49  42 S23G30    29.88F
NEWTON *       CLOUDY    73  50  43 S15G24    29.89F
PELLA *        MOSUNNY   73  48  40 S15G25    29.91F
PERRY *          N/A     76  48  37 S18G29    29.83F
$$

IAZ004>006-015-016-023>025-035-036-202200-
   NORTH CENTRAL IOWA

CITY           SKY/WX    TMP DP  RH WIND       PRES   REMARKS
ALGONA *       SUNNY     75  48  38 S24G35    29.77F
CLARION *      SUNNY     75  50  41 S25G35    29.82S
ESTHERVILLE    SUNNY     74  51  44 S26G38    29.73F
FORT DODGE *   SUNNY     73  51  46 S22G30    29.80F
MASON CITY     SUNNY     74  49  41 S24G32    29.84F
FOREST CITY *    N/A     73  48  40 S20G29    29.81F
WEBSTER CITY * SUNNY     73  50  43 S20G32    29.80F
IOWA FALLS *     N/A     74  52  46 SE17      29.87F
$$

IAZ007>011-017>019-026>030-037>042-050>054-066-202200-
   NORTHEAST IOWA

CITY           SKY/WX    TMP DP  RH WIND       PRES   REMARKS
CEDAR RAPIDS   SUNNY     75  48  38 S16G22    29.94F
CHARLES CITY * CLOUDY    75  45  33 S21G32    29.88F
CLINTON *      MOSUNNY   76  49  38 S15       30.00F
DECORAH *      MOSUNNY   73  46  38 S14G24    29.90S
DUBUQUE        MOSUNNY   74  48  39 S14G22    29.97F
MONTICELLO *   CLOUDY    77  46  33 S18G25    29.96S
OELWEIN *      CLOUDY    73  48  40 S23       29.92F
WATERLOO       CLOUDY    73  47  39 S20G29    29.89F
$$

IAZ064-065-067-068-078-202200-
   EAST CENTRAL IOWA

CITY           SKY/WX    TMP DP  RH WIND       PRES   REMARKS
DAVENPORT      CLOUDY    79  46  31 S14G24    30.00F
IOWA CITY      SUNNY     76  47  35 S16G25    29.97F
MUSCATINE *    SUNNY     77  48  36 S18       29.97F
QUAD CITIES    PTSUNNY   77  47  34 S14G24    29.99S
$$

IAZ062-063-075>077-085>089-095>099-202200-
   SOUTHEAST IOWA

CITY           SKY/WX    TMP DP  RH WIND       PRES   REMARKS
BURLINGTON     SUNNY     73  49  42 S13       30.00F
FAIRFIELD *    SUNNY     73  48  40 S20G25    29.95F
FORT MADISON * SUNNY     73  48  40 S9        30.01S
KEOKUK *       MOSUNNY   72  50  46 S10       30.00S
OSKALOOSA *      N/A     74  52  45 S18       29.93F
OTTUMWA        CLOUDY    76  51  41 S16       29.93F
WASHINGTON *   SUNNY     75  48  38 S22G28    29.97F
$$

ABBREVIATIONS USED IN REMARKS
   TC - TEMPERATURES IN CELSIUS
  WCI - WIND CHILL INDEX
   HX - HEAT INDEX
  VSB - VISIBILITY
$$





USA.gov is the U.S. government's official web portal to all federal, state and local government web resources and services.